TIMESTAMP,CO2_1_1_1,H2O_1_1_1,TAU_1_1_1,TAU_SSITC_TEST_1_1_1,H_1_1_1,H_SSITC_TEST_1_1_1,LE_1_1_1,LE_SSITC_TEST_1_1_1,FC_1_1_1,FC_SSITC_TEST_1_1_1,WD_0_0_1,WS_0_0_1,WS_MAX_0_0_1,U_SIGMA_0_0_1,V_SIGMA_0_0_1,W_SIGMA_0_0_1,USTAR_0_0_1,MO_LENGTH_0_0_1,ZL_0_0_1,FETCH_MAX_0_0_1,FETCH_70_0_0_1,FETCH_80_0_0_1,FETCH_90_0_0_1,PA_0_0_1,RH_0_0_1,TA_0_0_1,VPD_0_0_1,T_SONIC_0_0_1,T_SONIC_SIGMA_0_0_1
[yyyymmddHHMMSS],[mmolCO2 mol-1],[mmolH2O mol-1],[kg m-1 s-2],[#],[W m-2],[#],[W m-2],[#],[umolCO2 m-2 s-1],[#],[Decimal degrees],[m s-1],[m s-1],[m s-1],[m s-1],[m s-1],[m s-1],[m],[#],[m],[m],[m],[m],[kPa],[%],[deg C],[hPa],[deg C],[deg C]
20220626003000,415.91057222650085,22.798892457697558,0.20055984046608122,0,-23.064564528453868,0,36.093583212717853,0,1.6720438208038897,1,237.04290360166496,2.6579952921102481,7.4109121836483354,0.93010376888772639,0.69758984394924450,0.53529850038939852,0.42718474475317963,281.26223624332272,6.7552616567987861E-002,104.53715260196380,191.12725537119087,228.73051009716681,286.34345649193938,93.315045430531825,90.727586206896547,20.098965517241368,2.1748802464063464,21.509678936561045,0.13132841854043339
20220626010000,418.59598082166349,22.773155405585740,0.11074433622231630,0,-8.9154352578639813,0,-0.67101486948101197,2,1.6775208754950925,1,234.87005860880950,2.1222334283473594,5.7705844483595863,0.71531954837757517,0.66030706695233410,0.41051057112280342,0.31733020100570208,298.21867139386563,6.3711637876979796E-002,101.90712491855342,186.31872596160915,222.97592850944500,279.13940320760429,93.296263720703124,92.016666666666666,19.849666666666678,1.8438335246107500,21.265748267279776,0.12384025145027046
20220626013000,418.74823907701301,22.591497172300805,0.15495121106975232,0,-21.134108348180856,0,27.950857151489576,1,3.1085652026908317,0,259.88165992119434,2.3463165146555216,5.2700075835417737,0.76776429199162644,0.62049977560582614,0.45481279357019233,0.37544391101324420,208.38920892253236,9.1175546460580667E-002,107.40507778464992,196.37073728296454,235.00561874159322,294.19914788328106,93.324333914062507,89.966666666666669,20.088999999999999,2.3519062295696949,21.542461793687607,0.13559210622179027
20220626020000,419.99721549625519,21.705609169543326,0.47589064014954918,0,-110.45364417986769,1,-460.80195737180912,2,7.6144065815004502,0,276.61114269679820,2.9918949140578133,12.107338933951347,1.7488767541483274,1.5742244385135744,0.67712434459026605,0.65763189430433688,214.26875205163753,8.8673685817804687E-002,122.32252899192883,223.64459576691291,267.64546150622584,335.06035783995873,93.335478140407986,87.313333333333333,19.928333333333342,2.9444363834501748,21.198394606696183,0.46528835178338940
20220626023000,421.06652450003617,19.684486152386974,0.29085857550809163,0,-16.634227683835476,1,29.256983522791703,1,2.6842519005613017,1,289.25262755383801,3.0538315507537059,7.1708823665359667,1.1605514159613024,0.93792049611967987,0.67893274951350169,0.51282512537570946,674.62130397796284,2.8163949000668757E-002,100.03890495166601,182.90302402394090,218.88820567250366,274.02205928259144,93.374852167534726,85.010000000000005,18.793999999999983,3.2419185957355534,19.898514812893382,0.15020846028029297
20220626030000,422.52043526551535,19.598458857685671,0.23583033753692145,0,-44.667140349460254,0,3.0044771045145575,1,5.2320024359484538,0,271.89265718041634,2.6713128030910682,6.6557236132093811,0.95647139325146957,0.76833005326336257,0.55468613160470404,0.46131335813890267,182.91542269579119,0.10387314377311488,108.04728988920776,197.54490583314168,236.41079860932314,295.95826633296991,93.406758888020832,87.203333333333333,18.322666666666692,2.6870792480622754,19.462512249416818,0.22461050032284910
20220626033000,422.28184846327957,19.177377242968877,0.21007120913216235,0,-40.123079240698182,0,1.7503454626283739,2,5.3109127548898236,0,273.88315652130944,2.9441594101230817,6.8856537994329603,0.99362369209157941,0.82932014693233891,0.60327999556525846,0.43501278734117460,170.75976420863540,0.11126742935054464,96.392085997740750,176.23547588291493,210.90885346325214,264.03285718098704,93.424577254774306,87.540000000000006,17.918666666666695,2.5508112993557486,19.013727571275467,0.21058750538446133
20220626040000,421.26194977074010,18.689306528373876,0.18408808655706152,0,-31.464430018597898,0,2.1561862751830212,2,3.2710867931303218,0,266.23687660601831,2.7830714452531269,7.0481762682895459,0.89537612539221623,0.71824063555966478,0.55282586894462371,0.40701905485938461,178.34360399155739,0.10653592040732474,98.011267861473655,179.19585674138750,214.45167325902256,268.46804715900095,93.424302202256953,86.596666666666664,17.681333333333328,2.7032186325922205,18.749138569302033,0.21709105106267981
20220626043000,420.66098723179272,18.431338077525950,0.18860412217989525,0,-38.509182635214920,0,-0.69668015334343891,2,3.5447786960919800,0,262.74413300828144,3.0257106067426696,5.9068714902519215,0.83814916928732863,0.67867333319651602,0.49128369842138564,0.41183533026771807,150.94218619158679,0.12587600908260213,108.73463412215810,198.80159030817441,237.91472896424389,297.84100867446261,93.421993477864589,86.400000000000006,17.496666666666670,2.7111131320403707,18.536310426500108,0.21242351708602281
20220626050000,422.43294522639030,18.521602237451770,7.9635856201454649E-002,0,-13.443170673382760,1,-10.676403154428060,1,-0.47972123490074159,2,252.53246631757537,2.5539511891342355,4.9016671452358729,0.60079795275414316,0.50713627095460145,0.36202697736740924,0.26750142055406501,118.49104000427543,0.16034967706684350,98.293098708099166,179.71113341435728,215.06832783306879,269.24002551081310,93.421924530242947,88.183333333333337,17.250666666666689,2.3192753695089370,18.289973936516503,0.21240550813808254
20220626053000,424.11213326231757,19.030913237942421,7.4563100082404424E-002,0,-13.469982035802889,1,16.141314912245523,2,4.1891276717868315,0,254.12708057084546,2.6117404288481043,6.9743155352786870,0.80948701389246236,0.74547174259943405,0.43532182615895976,0.25892643171079260,107.23959110812984,0.17717337229346827,82.631884044642774,151.07743812132861,180.80110771513424,226.34153221942319,93.405053937934042,90.123333333333335,17.332666666666682,1.9485862541536789,18.419652663336819,0.28009514499834276
20220626060000,423.61362318270085,18.547175242814099,0.47298957980833106,0,-72.742093155007311,1,-263.87682640452056,2,-9.9467857402248533E-002,2,278.06602842172668,3.8614580001979921,10.284386332299148,1.6592952037471440,1.3886801111706994,0.88524774297009068,0.65227498393135219,317.46477005999446,5.9849160574287914E-002,98.072583397534217,179.30796109689345,214.58583354071126,268.63599991163704,93.414694305772571,86.713333333333338,17.537333333333322,2.6554590595217040,18.483204294840505,0.26360209126038575
20220626063000,422.82591936003769,16.972063340621194,0.48527224709506750,0,-47.571911704313607,1,3.4863296058986926,2,4.6245213322350969,1,289.84848327061707,3.4536422014055694,9.1013070995023977,1.3343227545104803,1.0512037335090132,0.83484037708460623,0.65931997954566046,501.30836777842518,3.7900823567337434E-002,103.66905328548495,189.54009295459093,226.83108205143409,283.96559797301336,93.446699691623266,84.200000000000003,16.605999999999995,2.9768714874184434,17.382001126607349,0.32525170444744173
20220626070000,422.52847119899752,16.128563253945600,0.39335198762035550,0,-33.407074430044887,0,13.563065939880165,1,4.1861014651525110,0,284.95856272305173,3.5737876696190440,8.9248917891890720,1.2876746962716239,1.0248693520055887,0.74955294032391306,0.59272850303743085,518.55413582262690,3.6640340299009803E-002,103.77618464579680,189.73596324903593,227.06548876791354,284.25904736633277,93.437376906901051,84.123333333333335,15.819333333333304,2.8449566467998535,16.583940361022883,0.26783370836652243
20220626073000,421.43881825186588,15.079075981856375,0.47017013447326156,0,-36.725861142194567,0,10.011377571463129,1,4.3101319217885674,0,284.33393508181098,3.7167404466614187,8.7197416941536936,1.3456734029770658,1.0478968241380551,0.82816648401033599,0.64722022028852921,613.99947383375297,3.0944651925132523E-002,102.80220759738874,187.95522257049873,224.93439698321990,281.59117333644701,93.438367937149266,81.736666666666665,15.218999999999994,3.1490501432301516,15.884376032286980,0.19137880974038077
20220626080000,421.57124147798902,14.487319487473419,0.56067251556407538,0,-34.536210386287095,0,35.522386812454030,1,5.7167360913045213,0,276.83641842897282,3.7780071870557004,10.080601829066243,1.5678054839775128,1.1940264700283398,0.89691589321979692,0.70612068081478230,847.88164928219487,2.2408787849206482E-002,103.40860252137745,189.06390589129168,226.26120775653786,283.25218297954717,93.449708082031250,80.750000000000000,14.787666666666667,3.2282760848780048,15.357275271945582,0.21297185908775706
20220626083000,420.13523995151814,13.696591709057563,0.69034969010728553,0,-26.029791829163546,1,25.775753660624432,0,4.4925051299348890,0,272.60991667709936,4.2750456563885377,11.750203918701205,1.9454187610993938,1.4089707837345666,0.95389081224068217,0.78262868525818485,1531.6508105475382,1.2404916231009491E-002,106.88101677787584,195.41258662189603,233.85895711538765,292.76366359509018,93.465960677300345,79.016333333333336,14.257666666666637,3.4005328068063956,14.735997005886475,0.23296358722042579
20220626090000,418.46121770959633,12.306457234524109,0.78583118730868073,0,-17.749488665317905,2,224.55740977261462,1,10.634948529537937,1,267.32773770952139,4.8699400341005834,12.396904208179450,1.8709462370324859,1.5272752123530302,1.1139594195112572,0.83414600519789628,2718.9212576413047,6.9880655596781483E-003,99.346612466126203,181.63729256501040,217.37344838848918,272.12576291064357,93.466127542534736,73.027000000000001,13.822999999999979,4.2496148222707708,14.144429461161280,0.21646434624027544
20220626093000,417.70930437910022,11.433714798562912,0.62046215234196878,0,-27.522154526736482,1,-16.038265904365272,1,0.69309785809387936,2,265.60347054176498,4.2507979067128847,11.498875388135454,1.7803459894476816,1.3882118303378059,0.96718739146883137,0.74051491179022588,1226.5903274739519,1.5490094430410783E-002,101.12847203096588,184.89510014449786,221.27221200546990,277.00655231498240,93.463906879515136,69.825333333333333,13.381333333333316,4.6193112800101135,13.622160372849294,0.19990722971153974
20220626100000,418.57804743314591,11.709492641444450,0.62007875919954725,0,-50.459406152695074,0,5.1301580685064874,2,3.1974364355817571,0,264.97607340249584,4.3744578300481018,11.590691530505387,1.6942116725274459,1.3266778621389264,0.99245637162021938,0.74007507334762168,667.74497585145571,2.8453976723333184E-002,99.016228895907631,181.03324602821556,216.65055895958392,271.22079112683440,93.441814646484374,72.721000000000004,13.120333333333349,4.1054845740748309,13.412903700086815,0.14220222802530311
20220626103000,418.93911726120103,11.736280723227246,0.68568340836988539,0,-38.973818133871802,0,11.807604319708695,0,2.7620615543448386,0,262.25850856557656,4.3202143684060932,10.158298138951171,1.7696867602259667,1.4152015453876794,1.0239117678727834,0.77815463965162845,1004.9612336241760,1.8906201915352094E-002,100.53044414320168,183.80171443445263,219.96370856515264,275.36846128037200,93.441115569878477,73.214666666666673,13.051666666666677,4.0131366582176726,13.305043074713808,0.13269239359712087
20220626110000,418.55474358561582,11.749372075505814,0.76655441404896030,0,-25.621345842498144,0,14.068563210306033,0,0.69802369247399321,1,262.29456419843092,5.0073847027727600,12.456443966586201,1.9165563405036981,1.4596949256048239,1.0947133504840625,0.82274605086956509,1806.9098635768821,1.0515189707575345E-002,99.638507442881121,182.17096967764641,218.01212358927805,272.92530847407488,93.445788238703457,73.299999999999997,13.051666666666677,4.0003515147995881,13.183973706142922,0.11392046336701799
20220626113000,418.14096971554835,11.840736146179719,1.1176172590572089,0,-3.9634587384486331,1,27.670313788601842,0,-0.88702328864977997,1,263.68479327405271,5.2251968542125233,13.765400693501004,2.1880349863214259,1.7975607754724667,1.2765318090901701,0.99341235703771047,20561.690195589130,9.2404854947556099E-004,102.45501781238414,187.32044891300774,224.17473503865745,280.64016672662052,93.444861837730230,74.003000000000000,13.024000000000001,3.8879844328506148,13.091371745705032,8.1298245863875698E-002
20220626120000,417.29545566272526,12.009038886750805,1.2651213518344226,0,36.413344807081998,0,50.530737745462666,0,-4.1094139680827544,0,267.49517858077820,4.9020036673217007,12.467835013608846,2.1186447564895774,1.6384156024539493,1.2339883329193231,1.0572153595811211,-2697.4599261054655,-7.0436634910205284E-003,110.64628279778570,202.29669377629597,242.09747515370401,303.07731056094775,93.435031309027778,74.546666666666667,13.126333333333321,3.8322241376177408,13.186481835259372,0.13169531112277899
20220626123000,416.19940391627898,12.087736848542157,0.87557052837575988,0,41.217584113487959,0,24.760712137582757,1,-4.7603340571086115,0,268.17255014390946,5.5008492598177039,13.256845733338347,2.0592028108118132,1.7936530072150303,1.2245701120246826,0.88006180577436044,-1374.6198737861421,-1.3822002985936711E-002,96.134332253608193,175.76421983230026,210.34488033114116,263.32682974307050,93.432559076388898,73.385333333333335,13.466666666666697,4.0970520391589433,13.469572626749709,0.14403298764820596
20220626130000,415.75483420505390,12.314506905959677,1.1365213814277861,0,84.819735063634894,0,52.589098332420761,0,-9.4821166842598199,0,269.29911381539057,5.3205105059637150,13.202386630301609,2.1062756587655191,1.8600297072522565,1.2810345287803795,1.0029572867245902,-988.85979413104735,-1.9214048455368841E-002,102.95138215778752,188.22796124369356,225.26079551660499,281.99978556838619,93.444715753507921,73.905333333333331,13.645666666666671,4.0640985130371607,13.696789943380281,0.22470644482381036
20220626133000,415.11002697147751,12.367754473057193,0.96170516247396498,0,86.747231303914475,0,83.901573116194953,0,-6.7853160263007606,1,268.38254050105064,5.1423378355080320,13.842244587701998,2.0325915124189793,1.8249181027937378,1.1787057975933362,0.92296873062395968,-753.52630728855092,-2.5214779917065659E-002,102.96275493090135,188.24875430010559,225.28567949450948,282.03093735588237,93.445598348307300,73.149333333333331,13.870333333333349,4.2433698293062774,13.885462016635529,0.29390777412344254
20220626140000,414.25743034170893,12.519647253862594,1.0880049925603335,0,94.829528153686326,0,71.239078462104771,0,-11.780192999129437,0,266.79973271931703,4.8426595177208469,12.242669568844269,1.9190732101466144,1.5237624009285207,1.1244169600524858,0.98204023146716002,-830.38179975620199,-2.2881040992924401E-002,112.36121162904887,205.43213062834292,245.84979226385832,307.77476631671465,93.453879978200703,73.078666666666663,14.074666666666644,4.3113358883227191,14.159214894964180,0.25158551282303671
20220626143000,414.17220011280256,12.006965005953882,1.4234558669636996,0,53.656478737591023,0,84.177136445083505,0,-6.9972917615411472,0,270.72346258899881,5.9605365161326871,14.251208132797855,2.2298260230939118,1.9088164047447227,1.2988632473269757,1.1228634952895067,-2193.8732859889951,-8.6604819527828034E-003,111.44631876432234,203.75941468150947,243.84797849311263,305.26873301960450,93.471404947048612,70.557000000000002,13.974333333333334,4.6845777012846588,14.029777971055807,0.15874543802122335
20220626150000,412.69192090190199,11.614170807947076,1.4233698130440426,0,74.310327565769896,0,79.651683512375484,1,-9.9600422944757199,0,268.65825086302561,5.9240812267266820,15.151717267668850,2.3659492879331432,2.1729091653542518,1.4393023457666014,1.1231299913091894,-1585.3013714137130,-1.1985102859689388E-002,102.67797449438224,187.72808483608685,224.66257112691571,281.25087962038367,93.485002336588551,67.212000000000003,14.212666666666678,5.2980339756945005,14.210117752075234,0.25888807540146419
20220626153000,412.36610118489244,11.107686523140265,1.1550841911014440,0,27.696080433408948,1,144.78714360070674,1,-4.3789764844293746,1,272.53345879726356,5.1453331443334935,14.889244834887300,2.2390447300637581,1.9328131880536707,1.3433656180629512,1.0109575176114789,-3103.0822343808682,-6.1229444033058019E-003,99.743784345147816,182.36344943133579,218.24247269442918,273.21367821950491,93.539652670572920,65.299000000000007,13.979333333333329,5.5229524838605197,13.986697528415334,0.25370968741283029
20220626160000,411.20138124194614,11.046999946822565,1.3926478293067652,0,76.691254015305375,0,21.685609012649241,2,-9.3346704787044086,0,263.20551912557914,5.3435316810089128,14.075225078920212,2.2493559476441569,1.8771146807236352,1.3374804351501588,1.1099693752075948,-1483.2961125181039,-1.2809310184023086E-002,107.86331084221328,197.20853345812830,236.00824678713542,295.45431922012784,93.549419484375008,64.994000000000000,13.968666666666650,5.5676400528097156,13.919831297132760,0.17590998183635462
20220626163000,411.01848363206693,10.932161641187841,1.6767634951168255,0,91.838340584550181,0,58.185576538273452,0,-12.815493608345681,0,277.81534904946403,6.8015033391071480,17.316740109797944,2.8922670027176642,2.2838988460254499,1.5045069812237588,1.2172817800427220,-1634.0323061169074,-1.1627677083785048E-002,105.69451038802282,193.24327452444055,231.26284458477397,289.51363877268165,93.573843523858955,65.275333333333336,13.745333333333349,5.4433464857780995,13.559004321040902,0.26953983002912085
20220626170000,410.02023023031529,10.301378968474335,1.8501650495447521,0,193.09200843531826,0,68.830490829069916,2,-16.048012487339619,0,272.07636711117743,6.2654009691945447,15.980744390794168,2.5952779042653900,2.2273673920744623,1.5242721889758239,1.2790888148272126,-901.67655649078449,-2.1071857600407945E-002,108.82418920447606,198.96532556078020,238.11067824304601,298.08631391933557,93.587492883029512,60.346666666666664,14.041333333333341,6.3365967651918167,13.812113888210718,0.37958301114138637
20220626173000,409.60526764056789,9.9529963042799494,2.3531651488447167,0,137.57061421365248,0,117.47196402851966,0,-16.023595566547677,0,277.13714820914691,6.6258991242200338,20.579663962106494,3.0515248618964068,2.3131839140433339,1.5696678972441835,1.4418463630969109,-1812.9500562949627,-1.0480156325337152E-002,116.98868730132662,213.89263201493597,255.97485158140512,320.45013909903662,93.608144788194451,58.953000000000003,13.874666666666656,6.4887265318924037,13.608744432237472,0.28337670322633973
20220626180000,409.34409876188488,9.9154632738627200,1.8539461476512591,0,123.08262289377869,0,34.389137177604944,2,-9.7909365921464744,1,279.21120863986653,5.8973691692798234,14.804373960043659,2.4857154901357044,2.0902686208274468,1.5610535216806765,1.2792060939712580,-1415.3362316375431,-1.3424371944479237E-002,106.77586069173023,195.22032775860831,233.62887235963112,292.47562478373334,93.633683281467015,59.449666666666666,13.691666666666663,6.3344162986932320,13.513701110839861,0.28063602661955594
20220626183000,408.98899193167199,9.9712654591740524,1.6930181225877250,0,73.329921707156629,0,91.795803520083552,0,-9.5995363508325617,0,281.07450373641586,5.9134907929919693,16.128677564653209,2.7703260127323408,2.1020387094491557,1.4122313627957657,1.2230274950427977,-2076.0867267782851,-9.1518334734910604E-003,111.60385459849202,204.04744042984896,244.19267175107245,305.70024807578022,93.626719098307291,58.798666666666669,13.946333333333314,6.5435037437987136,13.731938114590093,0.24673732766086268
20220626190000,407.79230520391070,10.423217276501141,2.1211566522072478,0,235.70576550052581,0,127.46285911435628,0,-20.225708155385220,0,272.61029617077952,5.5664297595778516,16.270752507281273,2.8177083151156062,1.9963833874048560,1.4502684826078034,1.3700453910149482,-907.97506456176291,-2.0925684791983149E-002,119.64213034693641,218.74397217456496,261.78066670291537,327.71833068808257,93.622135285373275,59.923999999999999,14.336999999999989,6.5280035940718681,14.189029079013380,0.47150048609535111
20220626193000,407.99317218138378,10.426490464041693,1.9525670687463326,0,185.99934378870728,0,-41.808115058734700,2,-11.269558401902950,0,278.71182223003757,6.0174456959566136,17.775041772639298,2.6304811882865975,2.3161103099406217,1.5123825331943357,1.3143120934188162,-1016.0073803553073,-1.8700651557625025E-002,111.91399025545293,204.61446732346809,244.87125812204516,306.54975768824994,93.644262646267364,59.967333333333329,14.334333333333348,6.5198197268172260,14.162750397576303,0.32519849389580741
20220626200000,407.33613716197112,11.147372879790730,1.5614330414027702,0,147.31972728437125,0,127.14304801538552,1,-14.627757275073716,0,271.43268043726670,6.1502228109583124,15.489778172520882,2.2940727787737467,2.1802387102151246,1.4288224208215459,1.1741787938917292,-914.90388453201149,-2.0767208797805921E-002,107.01870236348148,195.66431978494839,234.16021741801435,293.14080574513082,93.666339361328127,66.545333333333332,13.764000000000010,5.2506329257327868,13.589463868882945,0.31751827494443130
20220626203000,407.48156841303074,10.801249016302041,2.3359392878668630,0,271.75208701098364,0,94.858541174123388,1,-19.990596653340496,0,281.29503719898287,5.8803177872769732,16.326143111340365,2.9597512205613477,2.0809735673440968,1.4913799715507039,1.4378456058464750,-910.61055986927443,-2.0865121532005520E-002,121.60573535325528,222.33406838581192,266.07709494441144,333.09694901371370,93.652652452907986,61.733000000000004,14.432999999999993,6.2721664301029341,14.287540048387314,0.41404742140291856
20220626210000,407.78451931805438,10.857569325644583,2.9866598605083605,0,8.2697904909539712,2,208.56754380858538,0,-9.0105855597668985,1,286.24123096527290,6.9315894724671523,18.848718911259624,3.4951234664565072,2.7178406596858031,1.7159464807512776,1.6248690858648422,-43197.346513607103,-4.3984183134987301E-004,119.86892483768284,219.15862483604235,262.27690003493632,328.33955593458353,93.690569973958333,63.005666666666670,14.204333333333352,5.9744862436551527,13.998789269341501,0.56464528290892380
20220626213000,408.53225341057964,10.816956024573731,1.7854260807861020,0,167.78585681074108,0,50.711008255009361,2,-15.660433211403875,0,301.86004423501532,5.9802138968249388,16.716282367774003,2.7028657641868263,2.0622987058367022,1.4077566713479632,1.2539191166778392,-978.96294502436251,-1.9408293333847446E-002,114.14277934431080,208.68940461372159,249.74791730497267,312.65475629984496,93.759222460047653,66.505666666666670,13.326333333333309,5.1091449878006019,13.110794777673561,0.37143931113534207
20220626220000,407.28094814402408,11.788960742129701,1.2708234355553469,0,55.280775213553213,1,156.98219361838593,1,-13.267226109267970,0,293.89602481512611,5.2350086867020176,14.504617676965792,2.2585547648683422,1.8312997386614940,1.2796355367105641,1.0566650758569034,-1778.5825529519770,-1.0682664107136900E-002,107.43251652278727,196.42090404741629,235.06565554587155,294.27430683801117,93.776531600911468,75.974999999999994,12.609666666666669,3.4968649038692594,12.661362823486286,0.29312267756286237
20220626223000,407.23728491449748,11.928521436096455,1.1677021238589524,0,-35.329510911866635,2,155.78906078717409,1,-8.2300293327603296,0,301.64513817978565,5.9372864128220053,14.329479989521509,2.2728170605249542,2.0233652124734713,1.3613039777391360,1.0127807689974986,2450.5699878447799,7.7532982507102621E-003,98.833270293180803,180.69873935077743,216.25023990088798,270.71963916893469,93.780294808593752,77.197666666666663,12.546333333333337,3.3051395767043825,12.569049504598013,0.26802708445901419